[[{"header":{"parameterUnit":"m.s-1","parameterCategory":1,"la1":30.2991,"la2":30.254,"lo1":-89.0895,"lo2":-89.0444,"dy":0.0017,"dx":0.0017,"nx":28,"ny":28,"refTime":"2024-03-22T03:00:00:Z","depth":0,"parameterNumber":2,"parameterNumberName":"U-component_of_WINDS"},"data":[0,0,0,0,0,0,0,0,0,0,0,0,0,0,0,0,0,0,0,0,0,0,0,0,0,0,0,0,0,0,0,0,0,0,0,0,0,0,0,0,0,0,0,0,0,0,0,0,0,0,0,0,0,0,0,0,0,0,-2.0689,-2.069,0,-2.0762,-2.0763,-2.0763,-2.0749,-2.0747,-2.0746,-2.0745,-2.0817,-2.082,-2.0824,0,0,0,0,0,0,0,0,0,0,0,0,0,-2.0533,-2.0536,-2.0689,-2.069,-2.0691,-2.0762,-2.0763,-2.0764,-2.0749,-2.0747,-2.0746,-2.0744,-2.0816,-2.082,-2.0824,0,0,0,0,0,0,0,0,0,0,0,0,0,-2.0603,-2.0537,-2.0689,-2.0692,-2.0693,-2.0762,-2.0763,-2.0764,-2.0749,-2.0747,-2.0745,-2.0744,-2.0815,-2.082,-2.0824,-2.0893,0,0,-2.0839,-2.0841,0,0,0,0,0,0,0,0,-2.0599,-2.0609,-2.0691,-2.0692,-2.0693,-2.0744,-2.0734,-2.0807,-2.075,-2.0728,-2.0745,-2.0743,-2.0794,-2.0801,-2.0819,-2.0897,-2.09,-2.0839,-2.0842,-2.0844,-2.0846,0,0,0,0,0,0,0,-2.0594,-2.0605,-2.0718,-2.0692,-2.0693,-2.0689,-2.0696,-2.0748,-2.0771,-2.073,-2.0729,-2.0738,-2.0795,-2.0814,-2.082,-2.0901,-2.0839,-2.0843,-2.0846,-2.0848,-2.1038,-2.104,0,0,0,0,0,0,-2.0589,-2.0602,-2.0715,-2.072,-2.064,-2.0693,-2.0702,-2.073,-2.0771,-2.0775,-2.0739,-2.0737,-2.0807,-2.0815,-2.0823,-2.0907,-2.0844,-2.0849,-2.0851,-2.1036,-2.1039,-2.1041,0,0,0,0,0,0,-2.0585,-2.0599,-2.0712,-2.0661,-2.0675,-2.0698,-2.073,-2.0732,-2.0752,-2.0778,-2.0782,-2.0755,-2.0806,-2.0816,-2.0876,-2.0909,-2.0851,-2.0855,-2.1034,-2.1037,-2.104,-2.1075,0,0,0,0,0,0,-2.0581,-2.0598,-2.0626,-2.0661,-2.0677,-2.0766,-2.0732,-2.0735,-2.076,-2.0758,-2.0794,-2.0798,-2.0805,-2.0869,-2.0881,-2.0914,-2.0859,-2.1031,-2.1035,-2.1039,-2.1071,-2.1079,-2.1086,0,0,0,0,0,-2.0576,-2.0632,-2.0627,-2.0641,-2.0713,-2.0768,-2.0777,-2.0784,-2.0763,-2.079,-2.0807,-2.0797,-2.0903,-2.0875,-2.0888,-2.0924,-2.1029,-2.1034,-2.1039,-2.1068,-2.1077,-2.1086,0,0,0,0,0,0,-2.0599,-2.0637,-2.0632,-2.0702,-2.0732,-2.0765,-2.08,-2.0794,-2.0831,-2.0826,-2.0833,-2.0841,-2.0902,-2.0919,-2.0887,-2.0992,-2.0963,-2.097,-2.098,-2.099,-2.0997,-2.0993,-2.0863,0,0,0,0,0,-2.0613,-2.0655,-2.0685,-2.0744,-2.0759,-2.0777,-2.0801,-2.0804,-2.0835,-2.0848,-2.0869,-2.0898,-2.0938,-2.0964,-2.1002,-2.1072,-2.108,-2.1103,-2.111,-2.1116,-2.1124,-2.1161,-2.1172,-2.1057,-2.1057,-2.1057,0,0,-2.0641,-2.0667,-2.0693,-2.0749,-2.0773,-2.0816,-2.0788,-2.0835,-2.0866,-2.0854,-2.0913,-2.0929,-2.0962,-2.1027,-2.1057,-2.1043,-2.1156,-2.1123,-2.1127,-2.1131,-2.1167,-2.1178,-2.1188,-2.1061,-2.106,-2.106,0,0,-2.0715,-2.0738,-2.079,-2.0814,-2.085,-2.0861,-2.0873,-2.0907,-2.0918,-2.0976,-2.0968,-2.1004,-2.1073,-2.1097,-2.1119,-2.1199,-2.1191,-2.1211,-2.1251,-2.1287,-2.1296,-2.1304,-2.1334,-2.1344,-2.1217,-2.1217,-2.1218,0,-2.0745,-2.0811,-2.0817,-2.0865,-2.089,-2.088,-2.0932,-2.0954,-2.1001,-2.1018,-2.1001,-2.1086,-2.1108,-2.1178,-2.1198,-2.1215,-2.1229,-2.1208,-2.1294,-2.1303,-2.131,-2.1338,-2.1349,-2.122,-2.1219,-2.1219,-2.1219,0,-2.0847,-2.0892,-2.0929,-2.0975,-2.1003,-2.1053,-2.1065,-2.1093,-2.1092,-2.1105,-2.1164,-2.1189,-2.1232,-2.1248,-2.1248,-2.1318,-2.1308,-2.1293,-2.1264,-2.1323,-2.135,-2.136,-2.1223,-2.1222,-2.1222,-2.1221,0,0,-2.0941,-2.0988,-2.1001,-2.1022,-2.1059,-2.1094,-2.1142,-2.1184,-2.1208,-2.1239,-2.128,-2.1337,-2.1322,-2.1346,-2.1348,-2.138,-2.1443,-2.1361,-2.1362,-2.1376,-2.1521,-2.1534,-2.1547,-2.1436,-2.1438,-2.144,-2.1519,0,-2.1019,-2.1106,-2.1111,-2.1189,-2.1231,-2.1221,-2.1262,-2.1289,-2.1301,-2.1337,-2.135,-2.1391,-2.1368,-2.1383,-2.1414,-2.1429,-2.1472,-2.1423,-2.1474,-2.1476,-2.1468,-2.156,-2.1574,-2.1648,-2.1529,-2.1531,-2.1532,0,-2.1123,-2.1158,-2.124,-2.1271,-2.1289,-2.1327,-2.1365,-2.14,-2.1429,-2.1435,-2.1461,-2.1458,-2.1506,-2.1473,-2.1539,-2.1505,-2.1526,-2.1536,-2.1539,-2.1546,-2.1509,-2.1571,-2.1671,-2.1683,-2.1548,-2.1547,-2.1546,0,-2.1185,-2.1252,-2.131,-2.1327,-2.1364,-2.1391,-2.1407,-2.1435,-2.146,-2.1493,-2.1509,-2.1546,-2.1567,-2.1596,-2.1603,-2.1578,-2.1668,-2.1636,-2.1675,-2.1675,-2.1696,-2.1695,-2.1803,-2.1707,-2.1707,-2.1706,-2.1706,0,-2.1273,-2.1324,-2.1338,-2.1374,-2.143,-2.1434,-2.1489,-2.1504,-2.1528,-2.1565,-2.1558,-2.1593,-2.1599,-2.1635,-2.164,-2.1693,-2.1703,-2.1709,-2.171,-2.1711,-2.171,-2.1726,-2.1722,-2.1709,-2.1709,-2.1708,-2.1708,0,-2.1353,-2.1364,-2.1426,-2.1456,-2.1465,-2.1505,-2.153,-2.1563,-2.1573,-2.162,-2.1632,-2.1647,-2.1689,-2.1698,-2.1747,-2.175,-2.1814,-2.181,-2.1805,-2.1805,-2.1844,-2.1841,-2.1968,-2.1984,-2.1875,-2.1876,-2.1877,0,-2.1409,-2.1448,-2.1482,-2.1507,-2.1525,-2.1565,-2.159,-2.1595,-2.1621,-2.1656,-2.1685,-2.1726,-2.176,-2.1826,-2.1842,-2.1879,-2.1876,-2.1917,-2.1881,-2.1881,-2.1878,-2.1876,-2.188,-2.1925,-2.1926,-2.1927,-2.1928,0,-2.1509,-2.1512,-2.1549,-2.1588,-2.1618,-2.1649,-2.1677,-2.1698,-2.1706,-2.1736,-2.1779,-2.1804,-2.1854,-2.1895,-2.1932,-2.1947,-2.1939,-2.1938,-2.195,-2.1952,-2.1948,-2.1952,-2.1826,-2.1936,-2.1935,-2.1935,-2.1934,-2.1934,-2.158,-2.1614,-2.1643,-2.1684,-2.1706,-2.1732,-2.1765,-2.1779,-2.1815,-2.1857,-2.1857,-2.1904,-2.193,-2.1979,-2.1996,-2.2032,-2.2019,-2.2035,-2.2039,-2.2044,-2.2048,-2.1941,-2.2039,-2.2038,-2.2038,-2.2038,-2.2038,0,-2.168,-2.1698,-2.1735,-2.1776,-2.1808,-2.1797,-2.1827,-2.1855,-2.1896,-2.1922,-2.1955,-2.2003,-2.2042,-2.2059,-2.2097,-2.2122,-2.2119,-2.2132,-2.2131,-2.2135,-2.2057,-2.2044,-2.2134,-2.2134,-2.2134,-2.2134,-2.2134,-2.2134,-2.1736,-2.1793,-2.18,-2.1867,-2.1883,-2.193,-2.1948,-2.1972,-2.1993,-2.2048,-2.208,-2.2091,-2.2113,-2.2152,-2.2187,-2.219,-2.2205,-2.222,-2.2222,-2.215,-2.214,-2.2131,-2.2119,-2.2223,-2.2223,-2.2297,-2.2298,-2.2298]},{"header":{"parameterUnit":"m.s-1","parameterCategory":1,"la1":30.2991,"la2":30.254,"lo1":-89.0895,"lo2":-89.0444,"dy":0.0017,"dx":0.0017,"nx":28,"ny":28,"refTime":"2024-03-22T03:00:00:Z","depth":0,"parameterNumber":3,"parameterNumberName":"V-component_of_WINDS"},"data":[0,0,0,0,0,0,0,0,0,0,0,0,0,0,0,0,0,0,0,0,0,0,0,0,0,0,0,0,0,0,0,0,0,0,0,0,0,0,0,0,0,0,0,0,0,0,0,0,0,0,0,0,0,0,0,0,0,0,-3.5528,-3.553,0,-3.5748,-3.575,-3.5753,-3.5785,-3.5783,-3.5781,-3.5779,-3.6002,-3.6009,-3.6017,0,0,0,0,0,0,0,0,0,0,0,0,0,-3.5132,-3.5139,-3.5527,-3.553,-3.5533,-3.5747,-3.575,-3.5753,-3.5785,-3.5783,-3.578,-3.5778,-3.5999,-3.6008,-3.6018,0,0,0,0,0,0,0,0,0,0,0,0,0,-3.5323,-3.5141,-3.5527,-3.5575,-3.5581,-3.5747,-3.575,-3.5754,-3.5786,-3.5783,-3.578,-3.5777,-3.5996,-3.6008,-3.6019,-3.6151,0,0,-3.6055,-3.606,0,0,0,0,0,0,0,0,-3.5312,-3.5337,-3.5565,-3.5572,-3.5579,-3.5736,-3.5692,-3.5887,-3.5786,-3.5708,-3.5779,-3.5775,-3.5916,-3.5934,-3.5981,-3.6162,-3.6171,-3.6056,-3.6063,-3.6068,-3.6071,0,0,0,0,0,0,0,-3.5299,-3.5328,-3.5615,-3.5568,-3.5577,-3.5584,-3.5608,-3.5729,-3.5826,-3.5715,-3.5717,-3.5743,-3.5919,-3.597,-3.5987,-3.6175,-3.6056,-3.6066,-3.6073,-3.6078,-3.6473,-3.6477,0,0,0,0,0,0,-3.5277,-3.5317,-3.5608,-3.5621,-3.5436,-3.5594,-3.562,-3.5689,-3.5825,-3.5843,-3.5745,-3.5744,-3.5952,-3.5973,-3.5995,-3.6159,-3.6068,-3.6079,-3.6086,-3.647,-3.6474,-3.6478,0,0,0,0,0,0,-3.5269,-3.5303,-3.5599,-3.547,-3.5508,-3.5604,-3.568,-3.5694,-3.5746,-3.5848,-3.5865,-3.578,-3.595,-3.5978,-3.6112,-3.6167,-3.6084,-3.6095,-3.6466,-3.6471,-3.6476,-3.6487,0,0,0,0,0,0,-3.5257,-3.53,-3.5352,-3.5471,-3.5515,-3.5714,-3.5683,-3.5701,-3.5766,-3.5766,-3.5885,-3.5902,-3.595,-3.6095,-3.6124,-3.6182,-3.6104,-3.6461,-3.6468,-3.6474,-3.6483,-3.6492,-3.6501,0,0,0,0,0,-3.5243,-3.5346,-3.5354,-3.5389,-3.5582,-3.5717,-3.5742,-3.5795,-3.577,-3.5823,-3.5889,-3.5898,-3.6156,-3.6108,-3.6141,-3.6203,-3.6458,-3.6466,-3.6474,-3.6479,-3.6491,-3.6501,0,0,0,0,0,0,-3.523,-3.5362,-3.5373,-3.5518,-3.5606,-3.5722,-3.579,-3.5806,-3.5902,-3.5898,-3.596,-3.5986,-3.6117,-3.6173,-3.6118,-3.6338,-3.6305,-3.632,-3.6297,-3.6309,-3.6318,-3.6302,-3.6114,0,0,0,0,0,-3.5244,-3.5343,-3.5453,-3.557,-3.5614,-3.5694,-3.5755,-3.5788,-3.5881,-3.5918,-3.5994,-3.6083,-3.6184,-3.6249,-3.6348,-3.649,-3.6516,-3.6549,-3.6558,-3.6565,-3.6578,-3.6656,-3.6672,-3.6504,-3.6504,-3.6504,0,0,-3.5274,-3.5359,-3.5418,-3.557,-3.5642,-3.5742,-3.5725,-3.5832,-3.5907,-3.5934,-3.6066,-3.6124,-3.6227,-3.6366,-3.6431,-3.6417,-3.6629,-3.6575,-3.658,-3.6589,-3.6666,-3.6682,-3.6696,-3.6509,-3.6508,-3.6507,0,0,-3.5381,-3.5455,-3.5561,-3.5633,-3.5742,-3.5795,-3.582,-3.5934,-3.5973,-3.6106,-3.6129,-3.6217,-3.639,-3.6463,-3.6523,-3.6655,-3.6667,-3.6685,-3.6733,-3.6809,-3.6822,-3.6834,-3.6882,-3.6898,-3.6697,-3.6697,-3.6697,0,-3.5405,-3.5558,-3.5612,-3.5719,-3.5785,-3.5814,-3.5921,-3.5988,-3.6124,-3.6168,-3.615,-3.6368,-3.6439,-3.6595,-3.6627,-3.6674,-3.6704,-3.6672,-3.6816,-3.6829,-3.6841,-3.6887,-3.6904,-3.6698,-3.6698,-3.6698,-3.6698,0,-3.5581,-3.5687,-3.5759,-3.589,-3.5963,-3.6069,-3.6139,-3.6207,-3.6233,-3.6287,-3.6421,-3.6508,-3.6624,-3.6663,-3.669,-3.6823,-3.6811,-3.6804,-3.6772,-3.6858,-3.6902,-3.692,-3.67,-3.67,-3.6699,-3.6699,0,0,-3.5688,-3.5847,-3.5873,-3.5932,-3.6054,-3.6136,-3.6242,-3.6357,-3.6414,-3.6505,-3.6596,-3.6741,-3.6735,-3.6802,-3.6837,-3.6904,-3.7003,-3.6889,-3.6892,-3.6908,-3.7154,-3.716,-3.7179,-3.7011,-3.7014,-3.7017,-3.7146,0,-3.581,-3.6002,-3.6053,-3.6216,-3.6314,-3.6342,-3.6434,-3.6518,-3.6571,-3.6661,-3.6718,-3.682,-3.6805,-3.6845,-3.6913,-3.6976,-3.7053,-3.6968,-3.7095,-3.7099,-3.707,-3.7202,-3.7209,-3.7326,-3.7163,-3.7166,-3.7168,0,-3.5978,-3.6074,-3.6246,-3.6355,-3.6398,-3.648,-3.6589,-3.6674,-3.6769,-3.6803,-3.6877,-3.6905,-3.7016,-3.6977,-3.713,-3.707,-3.7125,-3.7164,-3.717,-3.7185,-3.714,-3.7222,-3.7365,-3.7382,-3.7196,-3.7194,-3.7192,0,-3.6039,-3.6211,-3.6337,-3.6386,-3.6516,-3.6573,-3.6629,-3.6722,-3.6787,-3.6881,-3.6924,-3.7029,-3.7087,-3.7167,-3.7223,-3.7189,-3.7371,-3.7336,-3.7401,-3.74,-3.744,-3.7437,-3.7595,-3.7473,-3.7473,-3.7472,-3.7472,0,-3.6171,-3.6275,-3.6366,-3.6443,-3.656,-3.6617,-3.6732,-3.6789,-3.687,-3.6958,-3.6988,-3.707,-3.7137,-3.7228,-3.7271,-3.7391,-3.7417,-3.7447,-3.7457,-3.7445,-3.7441,-3.7483,-3.7477,-3.7477,-3.7476,-3.7475,-3.7474,0,-3.626,-3.6325,-3.6464,-3.6575,-3.6605,-3.6686,-3.6781,-3.6856,-3.6909,-3.702,-3.7049,-3.7131,-3.7239,-3.7302,-3.7438,-3.7467,-3.76,-3.7607,-3.7569,-3.7574,-3.7636,-3.7629,-3.7827,-3.7856,-3.7713,-3.7715,-3.7716,0,-3.634,-3.6422,-3.6541,-3.6602,-3.666,-3.6758,-3.6825,-3.6883,-3.6951,-3.7065,-3.7126,-3.7236,-3.7327,-3.7497,-3.7569,-3.7673,-3.7682,-3.7744,-3.7698,-3.7683,-3.7684,-3.7679,-3.7688,-3.7753,-3.7754,-3.7755,-3.7756,0,-3.6476,-3.6504,-3.6599,-3.6706,-3.6785,-3.6871,-3.6957,-3.7005,-3.7077,-3.7152,-3.7263,-3.7333,-3.7472,-3.758,-3.769,-3.7746,-3.7763,-3.7769,-3.779,-3.7779,-3.7754,-3.7769,-3.7591,-3.7765,-3.7764,-3.7763,-3.7763,-3.7762,-3.6564,-3.6638,-3.6733,-3.6838,-3.6908,-3.6988,-3.7064,-3.7126,-3.722,-3.7338,-3.7366,-3.7482,-3.7574,-3.7723,-3.7782,-3.7873,-3.7862,-3.7892,-3.79,-3.7907,-3.7909,-3.7738,-3.7893,-3.7893,-3.7892,-3.7892,-3.7892,0,-3.6702,-3.6765,-3.686,-3.698,-3.7062,-3.707,-3.7165,-3.7233,-3.7336,-3.742,-3.7509,-3.7636,-3.7741,-3.782,-3.7927,-3.7984,-3.7995,-3.8011,-3.8008,-3.8021,-3.7912,-3.7884,-3.8,-3.8,-3.8,-3.8,-3.8,-3.8,-3.6784,-3.6908,-3.6947,-3.7106,-3.7168,-3.7283,-3.7336,-3.7409,-3.7477,-3.7617,-3.7705,-3.7756,-3.7838,-3.7951,-3.8047,-3.8067,-3.8105,-3.812,-3.8142,-3.804,-3.8028,-3.8017,-3.7991,-3.8128,-3.8128,-3.8243,-3.8244,-3.8245]}]]